EW8897 Weather Reports


time (UTC)temp
C
wind
direction
speed
KPH
gust
KPH
rain 1hr
cm
rain 24hr
cm
rain mn
cm
humidity
%
barometer
mb
20260904134537 25 213 1.6 11.3 0.00 0.05 0.00 75 1015.1
20260904133042 25 86 1.6 8.0 0.00 0.05 0.00 79 1014.9
20260904131542 24 296 1.6 6.4 0.00 0.05 0.00 79 1014.9
20260904130036 23 0 0.0 8.0 0.00 0.05 0.00 82 1015.0
20260904124532 23 0 0.0 6.4 0.00 0.05 0.00 83 1015.1
20260904123037 22 267 0.0 4.8 0.00 0.05 0.00 86 1015.1
20260904121533 21 0 0.0 6.4 0.00 0.05 0.00 90 1015.2
20260904120034 20 0 0.0 8.0 0.00 0.05 0.00 91 1015.3
20260904114534 19 299 0.0 4.8 0.00 0.08 0.00 92 1015.1
20260904113041 19 0 0.0 3.2 0.00 0.08 0.00 92 1015.0
20260904111538 18 0 0.0 0.0 0.00 0.08 0.00 91 1014.8
20260904110037 18 0 0.0 0.0 0.00 0.08 0.00 90 1014.7
20260904104535 19 0 0.0 0.0 0.00 0.15 0.00 90 1014.5
20260904103039 19 0 0.0 0.0 0.00 0.15 0.00 90 1014.2
20260904101547 19 0 0.0 0.0 0.00 0.15 0.00 90 1014.1
20260904100036 19 0 0.0 0.0 0.00 0.15 0.00 90 1014.0
20260904094542 19 0 0.0 0.0 0.00 0.36 0.00 90 1014.2
20260904093037 20 0 0.0 0.0 0.00 0.36 0.00 90 1013.8
20260904091535 20 0 0.0 0.0 0.00 0.36 0.00 90 1013.9
20260904090034 20 0 0.0 0.0 0.00 0.36 0.00 90 1014.3
20260904084534 20 0 0.0 1.6 0.00 0.43 0.00 90 1014.1
20260904083041 20 46 0.0 1.6 0.00 0.43 0.00 90 1014.2
20260904081532 20 0 0.0 3.2 0.00 0.43 0.00 90 1014.4
20260904080036 20 0 0.0 3.2 0.00 0.43 0.00 90 1014.2
20260904074541 20 0 0.0 3.2 0.00 0.43 0.00 90 1014.2
20260904073034 20 0 0.0 1.6 0.00 0.43 0.00 90 1014.2
20260904071534 20 0 0.0 0.0 0.00 0.43 0.00 89 1014.1
20260904070033 20 0 0.0 0.0 0.00 0.43 0.00 89 1013.9
20260904064535 20 0 0.0 3.2 0.00 0.43 0.00 89 1013.4
20260904063033 20 189 1.6 4.8 0.00 0.43 0.00 89 1013.1
20260904061532 20 0 0.0 0.0 0.00 0.43 0.00 88 1012.9
20260904060055 20 0 0.0 0.0 0.00 0.43 0.00 88 1012.6
20260904054552 21 0 0.0 0.0 0.00 0.43 0.00 88 1012.8
20260904053042 21 0 0.0 1.6 0.00 0.43 0.00 87 1013.0
20260904051535 21 0 0.0 4.8 0.00 0.43 0.00 86 1013.2
20260904050038 21 223 1.6 9.7 0.00 0.43 0.00 86 1013.4
20260904044540 22 198 0.0 4.8 0.03 0.43 0.00 88 1013.4
20260904043041 22 203 0.0 4.8 0.03 0.43 0.00 86 1013.6
20260904041534 22 0 1.6 6.4 0.03 0.43 0.00 84 1013.7
20260904040037 23 236 1.6 11.3 0.03 0.43 0.00 84 1014.0
20260904034534 23 0 1.6 6.4 0.03 0.41 0.41 88 1014.4
20260904033035 23 0 1.6 6.4 0.03 0.41 0.41 90 1014.7
20260904031536 23 238 0.0 4.8 0.03 0.41 0.41 89 1014.6
20260904030035 23 166 0.0 3.2 0.03 0.41 0.41 89 1015.0
20260904024536 23 0 0.0 3.2 0.00 0.38 0.38 89 1015.0
20260904023032 23 269 0.0 0.0 0.00 0.38 0.38 88 1014.6
20260904021536 23 0 0.0 0.0 0.00 0.38 0.38 88 1014.1
20260904020035 23 0 0.0 0.0 0.00 0.38 0.38 87 1014.2
20260904014607 23 0 0.0 1.6 0.00 0.38 0.38 87 1013.9
20260904013043 23 0 0.0 0.0 0.00 0.38 0.38 87 1013.7
20260904011535 23 0 0.0 0.0 0.00 0.38 0.38 87 1013.8
20260904010034 23 0 0.0 1.6 0.00 0.38 0.38 86 1014.2
20260904004533 23 0 0.0 0.0 0.00 0.38 0.38 86 1014.1
20260904003036 24 0 0.0 1.6 0.00 0.38 0.38 86 1014.3
20260904001536 24 0 0.0 0.0 0.00 0.38 0.38 86 1014.4
20260904000034 25 0 0.0 0.0 0.00 0.38 0.38 85 1014.4
20260903234541 25 0 0.0 0.0 0.00 0.38 0.38 83 1014.0
20260903233037 25 0 0.0 0.0 0.00 0.38 0.38 82 1013.8
20260903231534 26 0 0.0 0.0 0.00 0.38 0.38 81 1014.0
20260903230035 26 0 0.0 0.0 0.00 0.38 0.38 80 1013.7
20260903224535 27 0 0.0 0.0 0.00 0.38 0.38 78 1013.8
20260903223036 27 0 0.0 4.8 0.00 0.38 0.38 76 1013.7
20260903221536 28 0 0.0 6.4 0.00 0.38 0.38 72 1013.7
20260903220032 29 0 0.0 4.8 0.00 0.38 0.38 67 1013.4
20260903214540 30 352 1.6 6.4 0.00 0.38 0.38 67 1013.5
20260903213042 29 0 1.6 12.9 0.00 0.38 0.38 67 1013.5
20260903211548 30 223 1.6 8.0 0.00 0.38 0.38 66 1013.3
20260903210039 29 280 1.6 9.7 0.00 0.38 0.38 67 1013.5
20260903204534 30 227 3.2 9.7 0.00 0.38 0.38 63 1013.6
20260903203036 30 237 1.6 8.0 0.00 0.38 0.38 65 1013.6
20260903201537 30 73 1.6 11.3 0.00 0.38 0.38 68 1013.6
20260903200037 30 138 4.8 11.3 0.00 0.38 0.38 66 1013.8
20260903194536 30 271 3.2 8.0 0.00 0.38 0.38 67 1014.0
20260903193039 30 31 3.2 9.7 0.00 0.38 0.38 64 1014.2
20260903191535 30 130 1.6 11.3 0.00 0.38 0.38 72 1014.5
20260903190037 29 246 1.6 12.9 0.00 0.38 0.38 71 1014.6
20260903184536 29 223 3.2 6.4 0.00 0.38 0.38 67 1014.8
20260903183033 29 147 4.8 14.5 0.00 0.38 0.38 68 1015.1
20260903181538 28 165 0.0 8.0 0.00 0.38 0.38 73 1015.3
20260903180039 28 171 3.2 8.0 0.00 0.38 0.38 72 1015.3
20260903174538 28 260 3.2 11.3 0.00 0.71 0.38 73 1015.4
20260903173039 27 207 3.2 12.9 0.00 0.71 0.38 76 1015.7
20260903171538 27 179 3.2 14.5 0.00 0.71 0.38 76 1015.8
20260903170036 26 166 3.2 14.5 0.00 0.71 0.38 78 1016.2
20260903164535 26 90 1.6 11.3 0.00 2.11 0.38 79 1016.1
20260903163040 26 272 1.6 8.0 0.00 2.11 0.38 83 1016.5
20260903161533 25 232 1.6 8.0 0.00 2.11 0.38 85 1016.7
20260903160040 23 113 3.2 11.3 0.00 2.11 0.38 86 1016.8
20260903154534 23 352 3.2 11.3 0.00 2.39 0.38 86 1017.1
20260903153035 23 282 1.6 14.5 0.00 2.39 0.38 88 1016.9
20260903151535 23 300 3.2 9.7 0.00 2.39 0.38 87 1017.1
20260903150037 23 0 0.0 9.7 0.00 2.39 0.38 88 1017.6
20260903144537 23 271 0.0 6.4 0.00 2.39 0.38 88 1018.0
20260903143037 23 234 1.6 8.0 0.00 2.39 0.38 88 1017.9
20260903141535 23 55 1.6 8.0 0.00 2.39 0.38 88 1018.2
20260903140042 23 62 1.6 8.0 0.00 2.39 0.38 88 1017.7